WetterOnline ( https://www.wetteronline.ch )

Wetter aktuell Frankfurt am Main

Aktuelles Wetter: Offenbach (119m)

6-stündlich | Neueste Meldungen
Ortszeit Temperatur Wetter
So, 15.09. 8:00 8.6° C wolkig
So, 15.09. 2:00 10.9° C wolkenlos
Sa, 14.09. 20:00 18.8° C leicht bewölkt
Sa, 14.09. 14:00 21.7° C wolkenlos
Sa, 14.09. 8:00 11.4° C wolkig
Sa, 14.09. 2:00 13.7° C leicht bewölkt
Fr, 13.09. 20:00 18.6° C leicht bewölkt
Fr, 13.09. 14:00 21.6° C bewölkt
Ortszeit Temperatur Wetter
So, 15.09. 11:30 19.8° C leicht bewölkt
So, 15.09. 11:20 19.8° C leicht bewölkt
So, 15.09. 11:10 19.1° C leicht bewölkt
So, 15.09. 11:00 18.1° C leicht bewölkt
So, 15.09. 10:50 18.1° C wolkig
So, 15.09. 10:40 18.0° C wolkig
So, 15.09. 10:30 16.6° C wolkig
So, 15.09. 10:00 15.5° C leicht bewölkt
So, 15.09. 9:30 14.0° C leicht bewölkt
So, 15.09. 9:00 12.7° C leicht bewölkt
So, 15.09. 8:30 10.5° C wolkig
Ortszeit Relative Feuchte Sichtweite
So, 15.09. 8:00 97% 30 km
So, 15.09. 2:00 88% 45 km
Sa, 14.09. 20:00 58% 35 km
Sa, 14.09. 14:00 50% 60 km
Sa, 14.09. 8:00 83% 45 km
Sa, 14.09. 2:00 91% 35 km
Fr, 13.09. 20:00 74% 45 km
Fr, 13.09. 14:00 64% 65 km
Ortszeit Relative Feuchte Sichtweite
So, 15.09. 11:30 56% 40 km
So, 15.09. 11:20 56% -
So, 15.09. 11:10 57% -
So, 15.09. 11:00 60% 55 km
So, 15.09. 10:50 60% -
So, 15.09. 10:40 62% -
So, 15.09. 10:30 65% 40 km
So, 15.09. 10:00 65% 50 km
So, 15.09. 9:30 69% 40 km
So, 15.09. 9:00 80% 40 km
So, 15.09. 8:30 87% 30 km
Ortszeit Niederschlagsmenge Niederschlagsart
So, 15.09. 8:00 0.0 l/m2 in 12 Std. -
So, 15.09. 2:00 0.0 l/m2 in 6 Std. -
Sa, 14.09. 20:00 0.1 l/m2 in 12 Std. Niederschlag
Sa, 14.09. 14:00 0.0 l/m2 in 6 Std. -
Sa, 14.09. 8:00 0.0 l/m2 in 12 Std. -
Sa, 14.09. 2:00 0.0 l/m2 in 6 Std. -
Fr, 13.09. 20:00 0.0 l/m2 in 12 Std. -
Fr, 13.09. 14:00 0.0 l/m2 in 6 Std. -
Ortszeit Niederschlagsmenge Niederschlagsart
So, 15.09. 11:30 0.0 l/m2 in 1 Std. -
So, 15.09. 11:20 keine Meldung -
So, 15.09. 11:10 keine Meldung -
So, 15.09. 11:00 0.0 l/m2 in 1 Std. -
So, 15.09. 10:50 keine Meldung -
So, 15.09. 10:40 keine Meldung -
So, 15.09. 10:30 0.0 l/m2 in 1 Std. -
So, 15.09. 10:00 0.0 l/m2 in 1 Std. -
So, 15.09. 9:30 0.0 l/m2 in 1 Std. -
So, 15.09. 9:00 0.0 l/m2 in 1 Std. -
So, 15.09. 8:30 0.0 l/m2 in 1 Std. -
Ortszeit Stärke Spitze Richtung
km/h Bft. km/h Grad Sektor
So, 15.09. 8:00 0 0 11 - -
So, 15.09. 2:00 2 1 7 100° O
Sa, 14.09. 20:00 4 1 18 10° N
Sa, 14.09. 14:00 7 2 25 10° N
Sa, 14.09. 8:00 6 1 19 10° N
Sa, 14.09. 2:00 6 1 11 360° N
Fr, 13.09. 20:00 4 1 18 10° N
Fr, 13.09. 14:00 9 2 19 280° W
Ortszeit Stärke Spitze Richtung
km/h Bft. km/h Grad Sektor
So, 15.09. 11:30 4 1 11 230° SW
So, 15.09. 11:20 4 1 - 230° SW
So, 15.09. 11:10 4 1 - 200° S
So, 15.09. 11:00 2 1 11 140° SO
So, 15.09. 10:50 2 1 - 140° SO
So, 15.09. 10:40 4 1 - 140° SO
So, 15.09. 10:30 4 1 11 180° S
So, 15.09. 10:00 4 1 14 110° O
So, 15.09. 9:30 4 1 14 340° N
So, 15.09. 9:00 2 1 13 220° SW
So, 15.09. 8:30 0 0 4 - -
Ortszeit Untergrenze Bedeckung Gattung
total tief tief mittel hoch
So, 15.09. 8:00 12000 m 7/8 0/8 - - -
So, 15.09. 2:00 - 0/8 0/8 - - -
Sa, 14.09. 20:00 10500 m 3/8 0/8 - - -
Sa, 14.09. 14:00 - 0/8 0/8 - - -
Sa, 14.09. 8:00 10500 m 7/8 0/8 - - -
Sa, 14.09. 2:00 1800 m 5/8 2/8 - - -
Fr, 13.09. 20:00 9000 m 4/8 0/8 - - -
Fr, 13.09. 14:00 1080 m 7/8 7/8 - - -
Ortszeit Bedeckungsgrad in Achtel und Wolkenuntergrenze
So, 15.09. 11:30 5(12000m)
So, 15.09. 11:20 5(12000m)
So, 15.09. 11:10 6(12000m)
So, 15.09. 11:00 8(12000m)
So, 15.09. 10:50 8(12000m)
So, 15.09. 10:40 8(12000m)
So, 15.09. 10:30 7(12000m)
So, 15.09. 10:00 7(12000m)
So, 15.09. 9:30 6(12000m)
So, 15.09. 9:00 8(12000m)
So, 15.09. 8:30 7(12000m)
Ortszeit Luftdruck NN (hPa) Tendenz (hPa in 3 Std.)
So, 15.09. 8:00 1026 - 0,3
So, 15.09. 2:00 1027 - 0,8
Sa, 14.09. 20:00 1028 - 0,6
Sa, 14.09. 14:00 1031 - 1,6
Sa, 14.09. 8:00 1034 + 0,2
Sa, 14.09. 2:00 1033 + 0,3
Fr, 13.09. 20:00 1032 + 0,2
Fr, 13.09. 14:00 1032 - 0,2
Ortszeit Luftdruck NN (hPa) Tendenz (hPa in 3 Std.)
So, 15.09. 11:30 1025 - 0,4
So, 15.09. 11:20 1025 keine Meldung
So, 15.09. 11:10 1025 keine Meldung
So, 15.09. 11:00 1025 - 0,5
So, 15.09. 10:50 1025 keine Meldung
So, 15.09. 10:40 1025 keine Meldung
So, 15.09. 10:30 1025 - 0,2
So, 15.09. 10:00 1025 - 0,3
So, 15.09. 9:30 1026 + 0,2
So, 15.09. 9:00 1026 - 0,2
So, 15.09. 8:30 1026 - 0,3
Ortszeit Schneehöhe (cm)
So, 15.09. 8:00 -
So, 15.09. 2:00 -
Sa, 14.09. 20:00 -
Sa, 14.09. 14:00 -
Sa, 14.09. 8:00 -
Sa, 14.09. 2:00 -
Fr, 13.09. 20:00 -
Fr, 13.09. 14:00 -
Ortszeit Schneehöhe (cm)
So, 15.09. 11:30 -
So, 15.09. 11:20 -
So, 15.09. 11:10 -
So, 15.09. 11:00 -
So, 15.09. 10:50 -
So, 15.09. 10:40 -
So, 15.09. 10:30 -
So, 15.09. 10:00 -
So, 15.09. 9:30 -
So, 15.09. 9:00 -
So, 15.09. 8:30 -
Link zu dieser Seite / Seite empfehlen

Das Wetter in ...